Regional Weather Roundup
Issued by NWS

Home | Current Version | Previous Version | Graphics & Text | Print | Product List | Glossary On
Versions: 1 2 3 4 5 6 7 8 9 10 11 12 13 14 15 16 17 18 19 20 21 22 23 24 25 26 27 28 29 30 31 32 33 34 35 36 37 38 39 40 41 42 43 44 45 46 47 48 49 50
000
ASUS43 KMPX 121310
RWRMN
WEATHER ROUNDUP FOR MINNESOTA
NATIONAL WEATHER SERVICE TWIN CITIES/CHANHASSEN MN
800 AM CDT SAT JUL 12 2014


NOTE: "FAIR" INDICATES FEW OR NO CLOUDS BELOW 12,000 FEET WITH NO
SIGNIFICANT WEATHER AND/OR OBSTRUCTIONS TO VISIBILITY. N/A MEANS
CURRENT SKY AND/OR WEATHER CONDITIONS ARE NOT AVAILABLE.

MNZ060>063-068>070-121400-
   Twin Cities Metro

CITY           SKY/WX    TMP DP  RH WIND       PRES   REMARKS
TWIN CITIES    CLOUDY    71  69  93 SW3       30.00S FOG
ST PAUL        CLOUDY    70  68  93 CALM      30.00S FOG
CRYSTAL        LGT RAIN  72  69  90 CALM      29.99R FOG
LAKEVILLE      CLOUDY    70  68  94 CALM      30.00S FOG
EDEN PRAIRIE   CLOUDY    71  69  93 W3        30.00R FOG
SOUTH ST PAUL  CLOUDY    70  68  93 CALM      29.99F FOG
LAKE ELMO      FAIR      68  68 100 CALM      30.01S FOG
$$
MNZ001>005-007-008-013>017-022>024-027-028-121400-
   Northwest Minnesota

CITY           SKY/WX    TMP DP  RH WIND       PRES   REMARKS
BEMIDJI        SUNNY     63  58  83 CALM      30.04S
HALLOCK        SUNNY     61  55  82 CALM      30.01F
ROSEAU         SUNNY     63  57  82 CALM      30.02S
WARROAD        SUNNY     63  57  82 CALM      30.02S
THIEF RVR FALL MOSUNNY   63  57  82 CALM      30.04R
CROOKSTON      MOSUNNY   61  57  88 NW5       30.04S
FOSSTON        MOSUNNY   59  55  88 CALM      30.05R
DETROIT LAKES  MOSUNNY   66  59  77 CALM      30.06R
MOORHEAD       MOSUNNY   64  63  94 CALM      30.04F
PARK RAPIDS    MOSUNNY   65  59  81 CALM      30.04S
$$
MNZ006-009>011-018-025>026-121400-
   North Central Minnesota

CITY           SKY/WX    TMP DP  RH WIND       PRES   REMARKS
BAUDETTE       SUNNY     63  57  81 CALM      30.03S
FLAG ISLAND    SUNNY     64  57  77 S3        30.00R
INTL FALLS     SUNNY     63  57  81 NW3       30.02R
WASKISH        SUNNY     63  61  94 CALM      30.03R
BIG FORK       SUNNY     61  57  88 CALM      30.04R
LONGVILLE      MOSUNNY   63  61  94 CALM      30.04R
GRAND RAPIDS   SUNNY     64  57  77 N5        30.03F
CRANE LAKE     SUNNY     59  57  94 CALM      30.03S
ORR            SUNNY     59  55  88 CALM      30.01R
COOK           MOSUNNY   61  55  82 CALM      30.03S
$$
MNZ012-019>021-037-121400-
   Northeast Minnesota

CITY           SKY/WX    TMP DP  RH WIND       PRES   REMARKS
DULUTH         PTSUNNY   67  58  72 N6        30.02S
ELY            SUNNY     63  57  82 CALM      30.03R
HIBBING        MOSUNNY   67  58  72 N3        30.02F
EVELETH        SUNNY     63  61  94 CALM      30.03S
DULUTH HARBOR  PTSUNNY   68  63  83 CALM      30.01S
TWO HARBORS    PTSUNNY   66  55  68 CALM      29.99S
SILVER BAY     MOSUNNY   66  61  82 CALM      29.99S
GRAND MARAIS     N/A     62  53  72 VRB3      29.97R
G MARAIS ARPRT MOSUNNY   64  54  68 NW5       30.03R
$$
MNZ029>031-032-039>041-046>048-054>057-064-121400-
   West Central Minnesota

CITY           SKY/WX    TMP DP  RH WIND       PRES   REMARKS
FERGUS FALLS   CLOUDY    66  55  68 CALM      30.04S
WHEATON        LGT RAIN  63  57  82 NW3       30.06R
MORRIS         CLOUDY    66  63  88 CALM      30.02R
ALEXANDRIA     CLOUDY    68  57  68 NE6       30.05R
ELBOW LAKE     FAIR      66  61  82 CALM      30.04R
WADENA         PTSUNNY   64  57  77 CALM      30.03S
GLENWOOD       CLOUDY    66  59  77 NE7       30.03S
APPLETON       LGT RAIN  70  61  73 CALM      30.01S
BENSON         CLOUDY    70  57  64 NE6       30.01S
ORTONVILLE     CLOUDY    66  59  77 N5        30.02S
MADISON        LGT RAIN  72  63  73 N5        30.01S
WILLMAR        RAIN      70  64  83 E5        30.02S
$$
MNZ033>034-036-042>043-049>051-058-059-121400-
   Central Minnesota

CITY           SKY/WX    TMP DP  RH WIND       PRES   REMARKS
ST CLOUD       CLOUDY    70  65  84 CALM      30.01R
SAUK CENTRE    FAIR      67  58  72 N3        30.03S
PAYNESVILLE    CLOUDY    65  61  86 N5        30.03R
AITKIN         MOSUNNY   64  57  77 CALM      30.02S
PINE RIVER       N/A     64  59  82 N5        30.07S
BRAINERD       PTSUNNY   71  61  70 NE3       30.04R
STAPLES        PTSUNNY   64  57  77 NE3       30.04R
LONG PRAIRIE   FAIR      64  59  82 N3        30.04R
LITTLE FALLS   CLOUDY    64  61  88 CALM      30.03S
LITCHFIELD     CLOUDY    73  70  88 NE6       30.02R
BUFFALO        CLOUDY    69  62  77 W3        30.02R
MAPLE LAKE     CLOUDY    71  71  99 CALM      30.03R FOG
$$
MNZ037-044-045-052-053-121400-
   East Central Minnesota

CITY           SKY/WX    TMP DP  RH WIND       PRES   REMARKS
PRINCETON      CLOUDY    66  66 100 CALM      30.01S
MORA           CLOUDY    64  63  94 CALM      30.02F
CAMBRIDGE      CLOUDY    70  63  78 CALM      29.99S HAZE
RUSH CITY      FOG       68  67  96 CALM      30.01S VSB 3/4
MOOSE LAKE     PTSUNNY   64  59  82 N3        30.01S
HINCKLEY       PTSUNNY   64  63  94 N5        30.01S
CLOQUET        PTSUNNY   64  57  77 CALM      30.02F
MCGREGOR       PTSUNNY   63  61  94 CALM      30.04R
$$
MNZ071>073-080-081-089-090-097-098-121400-
   Southwest Minnesota

CITY           SKY/WX    TMP DP  RH WIND       PRES   REMARKS
MONTEVIDEO     LGT RAIN  68  63  83 CALM      30.02R
GRANITE FALLS  CLOUDY    71  70  95 CALM      30.00F FOG
CANBY          CLOUDY    67  62  83 NW5       30.02F
MARSHALL       CLOUDY    66  63  88 NW8       29.98F
REDWOOD FALLS  CLOUDY    73  71  93 CALM      29.98F FOG
OLIVIA         CLOUDY    73  66  78 SE7       29.99F
PIPESTONE      CLOUDY    72  68  88 S7        30.03R
WINDOM         DRIZZLE   72  70  94 S3        30.01S
WORTHINGTON    CLOUDY    73  66  78 E6        29.99F
JACKSON        LGT RAIN  72  68  88 S5        30.01R
TRACY          CLOUDY    72  70  93 SW8       30.01R FOG
SLAYTON        RAIN      70  69  98 CALM      30.02F
$$
MNZ065>067-074>077-082>085-091>093-121400-
   South Central Minnesota

CITY           SKY/WX    TMP DP  RH WIND       PRES   REMARKS
MANKATO        CLOUDY    72  66  83 CALM      29.99F
NEW ULM        CLOUDY    72  72 100 CALM      29.99S FOG
ST JAMES       CLOUDY    72  72 100 NW3       30.00S FOG
FAIRMONT       CLOUDY    72  66  83 W5        30.00R
GLENCOE        CLOUDY    70  67  90 N6        30.01R FOG
FARIBAULT      CLOUDY    73  66  78 CALM      30.01S HAZE
OWATONNA       CLOUDY    72  70  94 CALM      30.02R FOG
WASECA         CLOUDY    72  66  83 S3        30.03S HAZE
ALBERT LEA     CLOUDY    72  70  94 CALM      30.01F FOG
$$
MNZ078>079-086>088-094>096-121400-
   Southeast Minnesota

CITY           SKY/WX    TMP DP  RH WIND       PRES   REMARKS
ROCHESTER      CLOUDY    70  68  93 W5        30.03F FOG
RED WING       CLOUDY    70  68  94 CALM      29.99S FOG
STANTON        CLOUDY    70  68  92 CALM      29.99S FOG
DODGE CENTER   CLOUDY    70  68  94 W3        30.02S FOG
WINONA         CLOUDY    72  68  88 CALM      30.02R
AUSTIN           N/A     70  68  94 CALM      30.00F FOG
PRESTON        CLOUDY    70  69  96 CALM      30.03F FOG
$$
ABBREVIATIONS USED IN REMARKS
   TC - TEMPERATURES IN CELSIUS
  WCI - WIND CHILL INDEX
   HX - HEAT INDEX
  VSB - VISIBILITY
$$



USA.gov is the U.S. government's official web portal to all federal, state and local government web resources and services.